Retour au catalogue

FREGAT R/B

ActifPO
NORAD 59073·ROCKET BODY·🇷🇺 Russia

Lancé Feb 29, 2024 depuis Vostochny Cosmodrome

Loading…

Prochains Passages (prochaines 24 heures)

TLE

FraisSource: Space-Track

Époque: Sep 14, 2026, 00:24 UTC

1 59073U 24039W   26257.01678970  .00000133  00000-0  30734-4 0  9990
2 59073  88.9814 273.2697 0034528  11.6167 348.5828 14.48647988134267

Suivez FREGAT R/B en temps réel avec AllMySat

Download on the App Store